Location: San Antonio
(29.4240°N, 98.4930°W)
Time: 21:38:07
(UTC-05:00)

Hubble Space Telescope - Pass Details

Date: 27 June 2024
Orbit: 510 x 513 km, 28.5° (Epoch: 18 July)

Event Time Altitude Azimuth Distance (km) Brightness Sun altitude
Exits shadow 04:17:03 14° 120° (ESE) 1,464 3.1 -24.8°
Drops below altitude 10° 04:18:01 10° 109° (ESE) 1,718 3.6 -24.6°
Sets 04:20:41 0° 92° (E) 2,603 4.8 -24.2°
